Startpagina
METAR-TAF:

METAR-TAF

Vliegvelden :

L9-ff-1, Nederland

Productieplatform

breedte: 53-36-52N, lengte: 4-57-37E, hoogte: 30 m

Actueel weer

Dit bericht is 17 minuten geleden gemaakt, om 02:55 UTC
Wind 14 kt uit het westen
Temperatuur 18°C
Vochtigheid 83%
Druk 1011 hPa
Zicht 10 km of meer

METAR: EHMG 240255Z AUTO 27014KT 9999 NCD 18/15 Q1011

Tijdstip: 05:12 (03:12 UTC)


TAF: ontbreekt

Waarnemingen en weersverwachtingen van meer dan 4000 vliegvelden (METAR en TAF).

De beschikbare stations zijn de gele en rode punten op de kaart.

Ga met uw muis naar het station om de naam te zien.

Klik dan om waarnemingen en weersverwachtingen te zien.

kaart wijzigen: klik op de groene knoppen met een zwart kruis om in te zoomen, op de groene knop met een streepje om uit te zoomen of op de groene pijlen voor aangrenzende kaarten.


METAR-TAF: